Hell Yeah Pointer 4
     __    Bye Litespeed   _____ 
     ██████   ██████ ███████████       █████████  █████   ████ █████   ████           
░░██████ ██████ ░░███░░░░░███     ███░░░░░███░░███   ███░ ░░███   ███░            
 ░███░█████░███  ░███    ░███    ░███    ░░░  ░███  ███    ░███  ███              
 ░███░░███ ░███  ░██████████     ░░█████████  ░███████     ░███████               
 ░███ ░░░  ░███  ░███░░░░░███     ░░░░░░░░███ ░███░░███    ░███░░███              
 ░███      ░███  ░███    ░███     ███    ░███ ░███ ░░███   ░███ ░░███             
 █████     █████ █████   █████   ░░█████████  █████ ░░████ █████ ░░████                        
Zona waktu server: America/Sao_Paulo
Waktu server saat ini: 2026-08-31 00:58:43
curdir: / / usr / share / vim / vim74 / tutor / [ GO Home ]


Item Name
Size
Date
Permissions
View
Delete
Rename
. 4096 2026-08-17 21:56:05 0755
.. 4096 2026-08-17 21:56:05 0755
README.el.cp737.txt 1079 2026-08-05 16:39:58 0644
README.el.txt 1079 2026-08-05 16:39:58 0644
README.txt 862 2026-08-05 16:39:58 0644
tutor 33257 2026-08-05 16:39:58 0644
tutor.bar 40896 2026-08-05 16:39:58 0644
tutor.bar.utf-8 41845 2026-08-05 16:39:58 0644
tutor.ca 27591 2026-08-05 16:39:58 0644
tutor.ca.utf-8 27591 2026-08-05 16:39:58 0644
tutor.cs 25677 2026-08-05 16:39:58 0644
tutor.cs.cp1250 25677 2026-08-05 16:39:58 0644
tutor.cs.utf-8 27998 2026-08-05 16:39:58 0644
tutor.de 39116 2026-08-05 16:39:58 0644
tutor.de.utf-8 39116 2026-08-05 16:39:58 0644
tutor.el 30222 2026-08-05 16:39:58 0644
tutor.el.cp737 30222 2026-08-05 16:39:58 0644
tutor.el.utf-8 47158 2026-08-05 16:39:58 0644
tutor.eo 35127 2026-08-05 16:39:58 0644
tutor.eo.utf-8 35601 2026-08-05 16:39:58 0644
tutor.es 28041 2026-08-05 16:39:58 0644
tutor.es.utf-8 28041 2026-08-05 16:39:58 0644
tutor.fr 39364 2026-08-05 16:39:58 0644
tutor.fr.utf-8 39364 2026-08-05 16:39:58 0644
tutor.hr 33909 2026-08-05 16:39:58 0644
tutor.hr.cp1250 33909 2026-08-05 16:39:58 0644
tutor.hr.utf-8 34428 2026-08-05 16:39:58 0644
tutor.hu 27194 2026-08-05 16:39:58 0644
tutor.hu.cp1250 27194 2026-08-05 16:39:58 0644
tutor.hu.utf-8 28954 2026-08-05 16:39:58 0644
tutor.it 36457 2026-08-05 16:39:58 0644
tutor.it.utf-8 36457 2026-08-05 16:39:58 0644
tutor.ja.euc 33323 2026-08-05 16:39:58 0644
tutor.ja.sjis 33323 2026-08-05 16:39:58 0644
tutor.ja.utf-8 44060 2026-08-05 16:39:58 0644
tutor.ko.euc 27214 2026-08-05 16:39:58 0644
tutor.ko.utf-8 33755 2026-08-05 16:39:58 0644
tutor.nb 34628 2026-08-05 16:39:58 0644
tutor.nb.utf-8 35425 2026-08-05 16:39:58 0644
tutor.nl 37316 2026-08-05 16:39:58 0644
tutor.nl.utf-8 37329 2026-08-05 16:39:58 0644
tutor.no 35425 2026-08-05 16:39:58 0644
tutor.no.utf-8 35425 2026-08-05 16:39:58 0644
tutor.pl 35451 2026-08-05 16:39:58 0644
tutor.pl.cp1250 34149 2026-08-05 16:39:58 0644
tutor.pl.utf-8 35451 2026-08-05 16:39:58 0644
tutor.pt 36465 2026-08-05 16:39:58 0644
tutor.pt.utf-8 37206 2026-08-05 16:39:58 0644
tutor.ru 46100 2026-08-05 16:39:58 0644
tutor.ru.cp1251 28952 2026-08-05 16:39:58 0644
tutor.ru.utf-8 46100 2026-08-05 16:39:58 0644
tutor.sk 35526 2026-08-05 16:39:58 0644
tutor.sk.cp1250 33311 2026-08-05 16:39:58 0644
tutor.sk.utf-8 35526 2026-08-05 16:39:58 0644
tutor.sv 28700 2026-08-05 16:39:58 0644
tutor.sv.utf-8 28700 2026-08-05 16:39:58 0644
tutor.tr.iso9 28186 2026-08-05 16:39:58 0644
tutor.tr.utf-8 30226 2026-08-05 16:39:58 0644
tutor.utf-8 33257 2026-08-05 16:39:58 0644
tutor.vi.utf-8 32339 2026-08-05 16:39:58 0644
tutor.vim 4892 2026-08-05 16:39:58 0644
tutor.zh.big5 24356 2026-08-05 16:39:58 0644
tutor.zh.euc 30041 2026-08-05 16:39:58 0644
tutor.zh.utf-8 31397 2026-08-05 16:39:58 0644
tutor.zh_cn.utf-8 38809 2026-08-05 16:39:58 0644
tutor.zh_tw.utf-8 31397 2026-08-05 16:39:58 0644